Location: B?dimalle
(17.1788°N, 80.5377°E)
Time: 09:59:51
(UTC+00:00)

Tiros 1 despin weight - Pass Details

Date: 24 February 2026
Orbit: 556 x 593 km, 48.2° (Epoch: 10 March)

Event Time Altitude Azimuth Distance (km) Brightness Sun altitude
Rises 16:00:58 0° 290° (WNW) 2,729 - -48.0°
Reaches altitude 10° 16:04:12 10° 263° (W) 1,839 - -48.7°
Maximum altitude 16:06:19 14° 233° (SW) 1,622 - -49.2°
Drops below altitude 10° 16:08:26 10° 202° (SSW) 1,848 - -49.7°
Sets 16:11:43 0° 176° (S) 2,751 - -50.5°
